Content
SEND FEEDBACK

Daily
Averages
Monthly
Summary
United States of America

ST. LOUIS, MISSOURI


Home > North America > United States > Missouri
Elevation: 163 meters     Latitude: 38 45N     Longitude: 090 22W

WEATHER
 
SELECT A DAY
Number of Records: 201,199;   Date Range: 1/1/95 - 12/17/14
 
SHARE

PRINT THIS DATA

[ ← Previous Day ]
WEATHER ALMANAC - 3 APRIL, 2013
[ Next Day → ]
[ °F ]   °C
Weather ElementAverageHighLow
Temperature5.6 °C11.1 °C (2:54 pm)-2.2 °C (6:54 am)
Dewpoint-5.3 °C-1.1 °C (10:54 pm)-7.2 °C (11:54 am)
Humidity48.8 %79 % (3:54 am)27 % (3:54 pm)
Barometer1027.1 hPa1030.1 hPa (7:54 am)1025.1 hPa (8:54 pm)
Wind Speed9.2 km/h20.4 km/h (1:54 pm)
Wind Gust31.5 km/h (2:54 pm)
Weather ElementAverage
Visibility16.1 km
Wind DirectionNE (47.3 °)

Weather ElementTotal
Precipitation---
Heating Degree Days13.9 (Base 18.3)
Averaged from 22 records on 3 April, 2013
WEATHER CONDITIONS BREAKOUT
WIND DIRECTION BREAKOUT
WEATHER BY HOUR - 3 APRIL, 2013
[ °F ]   °C
Local TimeTemperatureDewpointHumidityBarometerVisibilityWind DirectionWind SpeedGust SpeedPrecipitationEventsConditions
2:54 AM-1.7 °C-5 °C78 %1027.1 hPa16.1 kmCalmClear
3:54 AM-1.1 °C-4.4 °C79 %1027.8 hPa16.1 kmCalmClear
4:54 AM0.6 °C-6.7 °C59 %1027.4 hPa16.1 kmNE (50°)7.4 km/hClear
5:54 AM-0.6 °C-6.7 °C64 %1027.8 hPa16.1 kmCalmClear
6:54 AM-2.2 °C-6.7 °C72 %1029.1 hPa16.1 kmCalmPartly Cloudy
7:54 AM1.7 °C-5.6 °C59 %1030.1 hPa16.1 kmNE (40°)7.4 km/hClear
8:54 AM3.3 °C-5 °C55 %1030.1 hPa16.1 kmENE (60°)11.1 km/hClear
9:54 AM5.6 °C-5.6 °C45 %1029.8 hPa16.1 kmNE (50°)11.1 km/hPartly Cloudy
10:54 AM7.2 °C-5.6 °C40 %1029.8 hPa16.1 kmNE (50°)16.7 km/hClear
11:54 AM9.4 °C-7.2 °C31 %1029.1 hPa16.1 kmNE (50°)9.3 km/h29.6 km/hPartly Cloudy
12:54 PM10 °C-7.2 °C29 %1027.1 hPa16.1 kmENE (70°)16.7 km/hPartly Cloudy
1:54 PM10.6 °C-7.2 °C28 %1027.4 hPa16.1 kmEast (80°)20.4 km/hPartly Cloudy
2:54 PM11.1 °C-6.7 °C28 %1026.8 hPa16.1 kmNE (40°)18.5 km/h31.5 km/hClear
3:54 PM11.1 °C-7.2 °C27 %1026.4 hPa16.1 kmEast (100°)20.4 km/hMostly Cloudy
4:54 PM11.1 °C-6.1 °C30 %1026.1 hPa16.1 kmEast (100°)16.7 km/hMostly Cloudy
5:54 PM10 °C-5 °C35 %1025.4 hPa16.1 kmEast (80°)16.7 km/hOvercast
6:54 PM8.9 °C-5.6 °C36 %1025.7 hPa16.1 kmEast (100°)13 km/hOvercast
7:54 PM7.2 °C-4.4 °C44 %1025.4 hPa16.1 kmEast (80°)9.3 km/hOvercast
8:54 PM7.2 °C-3.9 °C46 %1025.1 hPa16.1 kmEast (90°)5.6 km/hOvercast
9:54 PM6.7 °C-2.8 °C51 %1025.4 hPa16.1 kmCalmMostly Cloudy
10:54 PM4.4 °C-1.1 °C68 %1025.4 hPa16.1 kmCalmClear
11:54 PM3.3 °C-1.7 °C70 %1025.1 hPa16.1 kmCalmClear
Hourly data recorded from KSUS, located 0 kilometers away from St. Louis, Missouri







STORIES FROM OUR PARTNERS